Home   Weather   Uelzen   Past weeks

Flag for Germany Past Weather in Uelzen, Lower Saxony, Germany — Yesterday and Last 2 Weeks

Now
61 °F

Scattered clouds.


Feels Like: 61 °F
Forecast: 46 / 62 °F
Wind: 10 mph from West

Location: Fassberg

Current Time: Sep 30, 2016 at 6:56:08 PM

Latest Report: Sep 30, 2016 at 5:20 PM


Visibility: N/A

Pressure: 29.89 "Hg

Humidity: 68%

Dew Point: 50 °F

Location of UelzenLocation

Past Weather in Uelzen — Graph

°F

Uelzen Temperature Yesterday

Maximum temperature yesterday: 73 °F (at 2:20 PM)
Minimum temperature yesterday: 55 °F (at 10:47 PM)
Average temperature yesterday: 65 °F

High & Low Weather Summary for the Past Weeks

 TemperatureHumidityPressure
High79 °F (Sep 15, 5:20 PM)100% (Sep 21, 8:20 PM)30.30 "Hg (Sep 21, 8:20 PM)
Low39 °F (Sep 24, 6:45 AM)34% (Sep 15, 5:20 PM)29.83 "Hg (Sep 29, 3:20 PM)
Average59 °F75%30.09 "Hg
* Reported Sep 15 5:20 PM — Sep 30 5:20 PM, Uelzen, Weather by CustomWeather, © 2016

Note: Actual official high and low records may vary slightly from our data, if they occured in-between our weather recording intervals... More about our weather records

Advertising

Uelzen Weather History for the Previous 24 Hours

Scroll right to see more
 ConditionsComfort  
Time TempWeatherWind HumidityBarometerVisibility
5:20 PM
Fri, Sep 30
61 °FScattered clouds.10 mph68%29.89 "HgN/A
4:20 PM63 °FScattered clouds.14 mph59%29.89 "HgN/A
3:20 PM63 °FBroken clouds.14 mph59%29.89 "HgN/A
2:20 PM63 °FBroken clouds.13 mph64%29.89 "HgN/A
1:20 PM61 °FBroken clouds.14 mph68%29.92 "Hg6 mi
12:20 PM61 °FBroken clouds.13 mph72%29.89 "Hg6 mi
11:20 AM59 °FBroken clouds.13 mph77%29.92 "Hg6 mi
10:20 AM57 °FBroken clouds.9 mph88%29.92 "Hg5 mi
9:20 AM57 °FPartly sunny.9 mph88%29.89 "Hg4 mi
8:20 AM57 °FPartly sunny.7 mph88%29.89 "Hg4 mi
7:20 AM57 °FPartly sunny.9 mph88%29.86 "Hg4 mi
6:20 AM57 °FPassing clouds.9 mph88%29.86 "Hg4 mi
5:20 AM57 °FPassing clouds.9 mph88%29.86 "Hg4 mi
4:20 AM55 °FPassing clouds.7 mph94%29.86 "Hg6 mi
3:20 AM57 °FPassing clouds.10 mph88%29.86 "Hg6 mi
2:20 AM55 °FPassing clouds.10 mph94%29.86 "HgN/A
1:20 AM55 °FPassing clouds.10 mph94%29.86 "HgN/A
12:20 AM55 °FPassing clouds.9 mph94%29.86 "HgN/A
11:20 PM
Thu, Sep 29
55 °FPartly cloudy.12 mph94%29.86 "HgN/A
10:47 PM55 °FPartly cloudy.13 mph94%29.86 "Hg3 mi
10:20 PM57 °FDrizzle. Fog.12 mph88%29.86 "Hg3 mi
9:48 PM57 °FDrizzle. Fog.18 mph94%29.86 "Hg2 mi
9:20 PM64 °FPassing clouds.18 mph73%29.83 "HgN/A
8:20 PM68 °FPassing clouds.21 mph60%29.83 "HgN/A
7:20 PM68 °FPassing clouds.18 mph60%29.83 "HgN/A
6:20 PM68 °FBroken clouds.18 mph56%29.83 "HgN/A
Weather by CustomWeather, © 2016

See weather overviewHow to use our weather pages